TimeEDT,TemperatureF,Dew PointF,Humidity,Sea Level PressureIn,VisibilityMPH,Wind Direction,Wind SpeedMPH,Gust SpeedMPH,PrecipitationIn,Events,Conditions,WindDirDegrees,DateUTC
12:25 AM,59.0,53.6,82,29.96,10.0,SE,4.6,-,N/A,Rain,Rain,130,2012-10-02 04:25:00
1:07 AM,59.0,53.6,82,29.96,10.0,SE,4.6,-,N/A,,Overcast,140,2012-10-02 05:07:00
1:49 AM,60.8,53.6,77,29.98,10.0,Calm,Calm,-,N/A,,Overcast,0,2012-10-02 05:49:00
2:10 AM,60.8,53.6,77,29.97,10.0,SE,3.5,-,N/A,,Overcast,130,2012-10-02 06:10:00
2:28 AM,60.8,53.6,77,29.96,10.0,Calm,Calm,-,N/A,,Overcast,0,2012-10-02 06:28:00
2:52 AM,60.8,53.6,77,29.97,10.0,Calm,Calm,-,N/A,,Overcast,0,2012-10-02 06:52:00
3:16 AM,60.8,53.6,77,29.96,10.0,ESE,3.5,-,N/A,,Overcast,120,2012-10-02 07:16:00
3:37 AM,60.8,53.6,77,29.95,10.0,Calm,Calm,-,N/A,,Overcast,0,2012-10-02 07:37:00
3:58 AM,60.8,53.6,77,29.95,10.0,East,3.5,-,N/A,,Overcast,100,2012-10-02 07:58:00
4:19 AM,60.8,53.6,77,29.96,10.0,ESE,4.6,-,N/A,,Light Drizzle,120,2012-10-02 08:19:00
4:40 AM,60.8,53.6,77,29.94,10.0,East,3.5,-,N/A,,Overcast,100,2012-10-02 08:40:00
5:43 AM,60.8,55.4,82,29.95,10.0,SE,4.6,-,N/A,Rain,Light Rain,130,2012-10-02 09:43:00
6:04 AM,60.8,55.4,82,29.95,10.0,ESE,3.5,-,N/A,Rain,Light Rain,110,2012-10-02 10:04:00
6:25 AM,60.8,55.4,82,29.94,5.0,East,4.6,-,N/A,Rain,Heavy Rain,100,2012-10-02 10:25:00
6:49 AM,59.0,55.4,88,29.94,4.0,ESE,5.8,-,N/A,Rain,Rain,120,2012-10-02 10:49:00
7:10 AM,59.0,55.4,88,29.93,4.0,ESE,6.9,-,N/A,Rain,Heavy Rain,110,2012-10-02 11:10:00
7:31 AM,59.0,55.4,88,29.94,4.0,East,4.6,-,N/A,Rain,Rain,100,2012-10-02 11:31:00
7:52 AM,59.0,55.4,88,29.95,1.8,East,3.5,-,N/A,Rain,Heavy Rain,90,2012-10-02 11:52:00
8:13 AM,59.0,55.4,88,29.95,2.5,Calm,Calm,-,N/A,Rain,Rain,0,2012-10-02 12:13:00
8:34 AM,59.0,55.4,88,29.96,2.5,Calm,Calm,-,N/A,Rain,Heavy Rain,0,2012-10-02 12:34:00
8:55 AM,60.8,57.2,88,29.98,2.0,WSW,3.5,-,N/A,Rain,Heavy Rain,240,2012-10-02 12:55:00
9:16 AM,60.8,57.2,88,29.98,2.5,Calm,Calm,-,0.11,Rain,Heavy Rain,0,2012-10-02 13:16:00
9:37 AM,59.0,55.4,88,30.00,5.0,NW,4.6,-,0.20,Rain,Light Rain,310,2012-10-02 13:37:00
9:58 AM,59.0,55.4,88,29.98,3.0,North,4.6,-,N/A,Rain,Light Rain,360,2012-10-02 13:58:00
10:19 AM,59.0,55.4,88,29.98,3.0,NNE,3.5,-,0.01,Rain,Rain,30,2012-10-02 14:19:00
10:40 AM,59.0,55.4,88,29.98,4.0,NE,3.5,-,0.03,Rain,Rain,50,2012-10-02 14:40:00
11:01 AM,59.0,57.2,94,29.98,2.5,NNE,3.5,-,0.02,Rain,Heavy Rain,20,2012-10-02 15:01:00
11:25 AM,59.0,57.2,94,29.98,4.0,NNE,3.5,-,0.09,Rain,Rain,30,2012-10-02 15:25:00
11:46 AM,60.8,57.2,88,29.96,3.0,NE,5.8,-,N/A,Rain,Heavy Rain,40,2012-10-02 15:46:00
12:07 PM,60.8,57.2,88,29.96,2.5,ENE,4.6,-,0.13,Rain,Heavy Rain,70,2012-10-02 16:07:00
12:28 PM,60.8,57.2,88,29.96,5.0,NE,4.6,-,0.25,Rain,Rain,50,2012-10-02 16:28:00
12:49 PM,62.6,59.0,88,29.96,7.0,NE,3.5,-,N/A,,Overcast,40,2012-10-02 16:49:00
1:10 PM,62.6,59.0,88,29.96,10.0,Calm,Calm,-,N/A,,Overcast,0,2012-10-02 17:10:00
1:31 PM,62.6,60.8,94,29.95,5.0,Calm,Calm,-,N/A,Rain,Light Rain,0,2012-10-02 17:31:00
1:52 PM,62.6,60.8,94,29.94,7.0,Calm,Calm,-,N/A,,Overcast,0,2012-10-02 17:52:00
2:55 PM,64.4,60.8,88,29.93,4.0,Calm,Calm,-,0.01,Rain,Light Rain,0,2012-10-02 18:55:00
3:16 PM,64.4,62.6,94,29.93,5.0,North,3.5,-,0.02,Rain,Rain,360,2012-10-02 19:16:00
3:37 PM,64.4,62.6,94,29.93,7.0,Calm,Calm,-,0.03,,Overcast,0,2012-10-02 19:37:00
4:01 PM,64.4,62.6,94,29.92,7.0,Calm,Calm,-,N/A,,Overcast,0,2012-10-02 20:01:00
4:22 PM,64.4,62.6,94,29.92,2.5,NE,3.5,-,N/A,,Overcast,40,2012-10-02 20:22:00
4:43 PM,64.4,62.6,94,29.93,2.0,Calm,Calm,-,N/A,Rain,Light Rain,0,2012-10-02 20:43:00
5:04 PM,66.2,62.6,88,29.93,1.5,ENE,3.5,-,0.01,,Drizzle,70,2012-10-02 21:04:00
5:28 PM,66.2,62.6,88,29.93,1.5,Calm,Calm,-,0.01,,Overcast,0,2012-10-02 21:28:00
5:49 PM,66.2,62.6,88,29.93,1.5,Calm,Calm,-,N/A,,Overcast,0,2012-10-02 21:49:00
6:10 PM,66.2,62.6,88,29.93,1.2,Calm,Calm,-,N/A,,Overcast,0,2012-10-02 22:10:00
6:31 PM,66.2,62.6,88,29.94,0.8,Calm,Calm,-,N/A,,Overcast,0,2012-10-02 22:31:00
6:52 PM,66.2,62.6,88,29.94,0.5,Calm,Calm,-,N/A,Fog,Fog,0,2012-10-02 22:52:00
7:13 PM,64.4,62.6,94,29.95,0.5,Calm,Calm,-,N/A,Fog,Fog,0,2012-10-02 23:13:00
8:40 PM,64.4,62.6,94,29.96,0.5,Calm,Calm,-,N/A,Fog,Fog,0,2012-10-03 00:40:00
9:43 PM,64.4,62.6,94,29.98,0.5,Calm,Calm,-,N/A,Fog,Fog,0,2012-10-03 01:43:00
10:04 PM,64.4,60.8,88,29.99,0.2,Calm,Calm,-,N/A,Fog,Fog,0,2012-10-03 02:04:00
10:25 PM,64.4,60.8,88,29.99,0.2,Calm,Calm,-,0.01,Fog,Fog,0,2012-10-03 02:25:00
10:46 PM,64.4,60.8,88,29.99,0.2,Calm,Calm,-,N/A,Fog,Fog,0,2012-10-03 02:46:00
11:07 PM,64.4,60.8,88,29.99,0.2,Calm,Calm,-,N/A,Fog,Fog,0,2012-10-03 03:07:00
11:28 PM,64.4,60.8,88,29.99,0.2,Calm,Calm,-,N/A,Fog,Fog,0,2012-10-03 03:28:00
11:49 PM,64.4,60.8,88,29.98,0.2,Calm,Calm,-,N/A,Fog,Fog,0,2012-10-03 03:49:00